Sugarloaf, CA

2:54 AM PDT on August 26, 2016 (GMT -0700)
Big Bear City

Weather History for KL35 - February, 2014

Change the Weather History Date:

Monday, February 24, 2014

  Actual Average (KBUO) Record (KBUO)
Temperature  
Mean Temperature 38 °F -  
Max Temperature 55 °F 57 °F 75 °F (1999)
Min Temperature 21 °F 39 °F 33 °F (2001)
Degree Days  
Heating Degree Days 27    
Moisture  
Dew Point 17 °F    
Average Humidity 48    
Maximum Humidity 74    
Minimum Humidity 22    
Precipitation  
Precipitation 0.00 in - - ()
Sea Level Pressure  
Sea Level Pressure 30.13 in    
Wind  
Wind Speed 1 mph (NNE)    
Max Wind Speed 10 mph    
Max Gust Speed 16 mph    
Visibility 10 miles    
Events      
Averages and records for this station are not official NWS values.
T = Trace of Precipitation, MM = Missing Value Source: NWS Daily Summary

Daily Weather History Graph

Daily Weather History Graph

Search for Another Location

Airport or City:

Trip Planner

Search our weather history database for the weather conditions in past years. The results will help you decide how hot, cold, wet, or windy it might be!

Date:

Astronomy

Feb. 24, 2014 Rise Set
Actual Time 6:22 AM PST 5:39 PM PST
Civil Twilight 5:56 AM PST 6:04 PM PST
Nautical Twilight 5:27 AM PST 6:33 PM PST
Astronomical Twilight 4:58 AM PST 7:02 PM PST
Moon 2:17 AM PST (2/24) 12:53 PM PST (2/24)
Length of Visible Light 12h 07m
Length of Day
11h 17m
Waning Crescent, 27% of the Moon is Illuminated
Feb 24
Waning Crescent
Mar 1
New
Mar 8
First Quarter
Mar 16
Full
Mar 23
Last Quarter

Hourly Weather History & Observations

Time (PST) Temp. Windchill Dew Point Humidity Pressure Visibility Wind Dir Wind Speed Gust Speed Precip Events Conditions
12:15 AM 26.6 °F - 14.0 °F 59% 30.14 in 10.0 mi Calm Calm - N/A   Clear
12:35 AM 26.6 °F - 14.0 °F 59% 30.14 in 10.0 mi Calm Calm - N/A   Clear
12:55 AM 26.6 °F - 12.2 °F 55% 30.14 in 10.0 mi Calm Calm - N/A   Clear
1:10 AM 26.6 °F - 12.2 °F 55% 30.14 in 10.0 mi Calm Calm - N/A   Clear
1:35 AM 24.8 °F - 12.2 °F 59% 30.14 in 10.0 mi Calm Calm - N/A   Clear
1:55 AM 24.8 °F - 14.0 °F 64% 30.14 in 10.0 mi Calm Calm - N/A   Clear
2:15 AM 24.8 °F - 12.2 °F 59% 30.13 in 10.0 mi Calm Calm - N/A   Clear
2:35 AM 23.0 °F - 12.2 °F 63% 30.13 in 10.0 mi Calm Calm - N/A   Clear
2:55 AM 23.0 °F - 12.2 °F 63% 30.13 in 10.0 mi Calm Calm - N/A   Clear
3:15 AM 23.0 °F - 12.2 °F 63% 30.12 in 10.0 mi Calm Calm - N/A   Clear
3:35 AM 23.0 °F - 12.2 °F 63% 30.12 in 10.0 mi Calm Calm - N/A   Clear
3:55 AM 23.0 °F - 12.2 °F 63% 30.12 in 10.0 mi Calm Calm - N/A   Clear
4:15 AM 23.0 °F - 12.2 °F 63% 30.12 in 10.0 mi Calm Calm - N/A   Clear
4:35 AM 21.2 °F - 12.2 °F 68% 30.13 in 10.0 mi Calm Calm - N/A   Clear
4:55 AM 21.2 °F - 12.2 °F 68% 30.13 in 10.0 mi Calm Calm - N/A   Clear
5:15 AM 21.2 °F - 12.2 °F 68% 30.13 in 10.0 mi Calm Calm - N/A   Clear
5:35 AM 21.2 °F - 12.2 °F 68% 30.13 in 10.0 mi Calm Calm - N/A   Clear
5:50 AM 21.2 °F - 14.0 °F 74% 30.13 in 10.0 mi Calm Calm - N/A   Clear
6:15 AM 21.2 °F - 14.0 °F 74% 30.14 in 10.0 mi Calm Calm - N/A   Clear
6:35 AM 21.2 °F - 14.0 °F 74% 30.15 in 10.0 mi Calm Calm - N/A   Clear
6:55 AM 23.0 °F - 14.0 °F 68% 30.14 in 10.0 mi Calm Calm - N/A   Clear
7:15 AM 24.8 °F - 15.8 °F 69% 30.15 in 10.0 mi Calm Calm - N/A   Clear
7:35 AM 28.4 °F - 17.6 °F 64% 30.15 in 10.0 mi Calm Calm - N/A   Clear
7:55 AM 32.0 °F - 19.4 °F 60% 30.15 in 10.0 mi Calm Calm - N/A   Clear
8:15 AM 33.8 °F - 19.4 °F 56% 30.16 in 10.0 mi Calm Calm - N/A   Clear
8:35 AM 41.0 °F - 19.4 °F 42% 30.16 in 10.0 mi Calm Calm - N/A   Clear
8:55 AM 42.8 °F - 19.4 °F 39% 30.16 in 10.0 mi Calm Calm - N/A   Clear
9:15 AM 46.4 °F 45.2 °F 17.6 °F 32% 30.16 in 10.0 mi NE 3.5 mph - N/A   Clear
9:35 AM 50.0 °F - 17.6 °F 28% 30.16 in 10.0 mi Calm Calm - N/A   Clear
9:55 AM 50.0 °F - 17.6 °F 28% 30.16 in 10.0 mi Calm Calm - N/A   Clear
10:15 AM 53.6 °F - 15.8 °F 22% 30.15 in 10.0 mi West 3.5 mph - N/A   Clear
10:30 AM 51.8 °F - 15.8 °F 24% 30.15 in 10.0 mi ENE 3.5 mph - N/A   Clear
10:55 AM 53.6 °F - 17.6 °F 24% 30.15 in 10.0 mi Calm Calm - N/A   Clear
11:15 AM 53.6 °F - 17.6 °F 24% 30.14 in 10.0 mi ENE 5.8 mph - N/A   Clear
11:35 AM 53.6 °F - 19.4 °F 26% 30.13 in 10.0 mi NE 10.4 mph - N/A   Clear
11:55 AM 53.6 °F - 19.4 °F 26% 30.13 in 10.0 mi ENE 10.4 mph - N/A   Clear
12:15 PM 53.6 °F - 19.4 °F 26% 30.12 in 10.0 mi NE 8.1 mph 16.1 mph N/A   Clear
12:35 PM 53.6 °F - 19.4 °F 26% 30.12 in 10.0 mi East 9.2 mph - N/A   Clear
12:55 PM 53.6 °F - 19.4 °F 26% 30.11 in 10.0 mi NE 10.4 mph - N/A   Clear
1:15 PM 53.6 °F - 19.4 °F 26% 30.11 in 10.0 mi ENE 8.1 mph - N/A   Clear
1:35 PM 53.6 °F - 17.6 °F 24% 30.10 in 10.0 mi East 6.9 mph - N/A   Clear
1:55 PM 53.6 °F - 17.6 °F 24% 30.10 in 10.0 mi East 8.1 mph - N/A   Clear
2:15 PM 53.6 °F - 19.4 °F 26% 30.10 in 10.0 mi NW 6.9 mph - N/A   Clear
2:35 PM 55.4 °F - 19.4 °F 25% 30.10 in 10.0 mi West 9.2 mph - N/A   Clear
2:55 PM 53.6 °F - 21.2 °F 28% 30.10 in 10.0 mi WNW 9.2 mph - N/A   Clear
3:15 PM 53.6 °F - 17.6 °F 24% 30.10 in 10.0 mi North 5.8 mph - N/A   Clear
3:35 PM 51.8 °F - 17.6 °F 26% 30.09 in 10.0 mi North 4.6 mph - N/A   Clear
3:55 PM 51.8 °F - 17.6 °F 26% 30.09 in 10.0 mi NE 6.9 mph - N/A   Clear
4:15 PM 51.8 °F - 17.6 °F 26% 30.10 in 10.0 mi Calm Calm - N/A   Clear
4:35 PM 51.8 °F - 17.6 °F 26% 30.10 in 10.0 mi North 3.5 mph - N/A   Clear
4:55 PM 51.8 °F - 17.6 °F 26% 30.10 in 10.0 mi North 3.5 mph - N/A   Clear
5:15 PM 50.0 °F - 17.6 °F 28% 30.11 in 10.0 mi Calm Calm - N/A   Clear
5:35 PM 46.4 °F - 19.4 °F 34% 30.11 in 10.0 mi Calm Calm - N/A   Clear
5:55 PM 46.4 °F 45.2 °F 23.0 °F 40% 30.12 in 10.0 mi SW 3.5 mph - N/A   Clear
6:15 PM 44.6 °F 43.1 °F 23.0 °F 43% 30.13 in 10.0 mi WSW 3.5 mph - N/A   Clear
6:35 PM 41.0 °F - 21.2 °F 45% 30.13 in 10.0 mi Calm Calm - N/A   Clear
6:55 PM 39.2 °F - 21.2 °F 49% 30.14 in 10.0 mi Calm Calm - N/A   Clear
7:15 PM 37.4 °F - 21.2 °F 52% 30.14 in 10.0 mi Calm Calm - N/A   Clear
7:35 PM 35.6 °F - 21.2 °F 56% 30.14 in 10.0 mi Calm Calm - N/A   Clear
7:55 PM 33.8 °F - 21.2 °F 60% 30.15 in 10.0 mi Calm Calm - N/A   Clear
8:15 PM 33.8 °F - 21.2 °F 60% 30.15 in 10.0 mi Calm Calm - N/A   Clear
8:35 PM 32.0 °F - 21.2 °F 64% 30.15 in 10.0 mi Calm Calm - N/A   Clear
8:55 PM 32.0 °F - 19.4 °F 60% 30.16 in 10.0 mi Calm Calm - N/A   Clear
9:15 PM 32.0 °F - 19.4 °F 60% 30.16 in 10.0 mi Calm Calm - N/A   Clear
9:35 PM 30.2 °F - 19.4 °F 64% 30.16 in 10.0 mi Calm Calm - N/A   Clear
9:55 PM 30.2 °F - 19.4 °F 64% 30.16 in 10.0 mi Calm Calm - N/A   Clear
10:15 PM 30.2 °F - 19.4 °F 64% 30.16 in 10.0 mi Calm Calm - N/A   Clear
10:35 PM 28.4 °F - 19.4 °F 69% 30.16 in 10.0 mi Calm Calm - N/A   Clear
10:55 PM 28.4 °F - 19.4 °F 69% 30.16 in 10.0 mi Calm Calm - N/A   Clear
11:15 PM 28.4 °F - 19.4 °F 69% 30.16 in 10.0 mi Calm Calm - N/A   Clear
11:30 PM 28.4 °F - 19.4 °F 69% 30.16 in 10.0 mi Calm Calm - N/A   Clear
11:55 PM 28.4 °F - 19.4 °F 69% 30.16 in 10.0 mi Calm Calm - N/A   Clear